Details From LXGB - Gibraltar
To GMME - SALE
Flight Number -
Tags generated
Created
Modified
Stats Distance 144 nm / 266 km
Max Altitude 0 ft / 0 m
Waypoints 2
Social Downloads 0
Likes 0
Share VATSIM

Download

Looking for another format? Having issues loading an existing format? Contact us
Advertisement - Login to hide

Notes

Basic altitude profile: - Ascent Rate: 2500ft/min - Ascent Speed: 250kts - Cruise Altitude: 35000ft - Cruise Speed: 420kts - Descent Rate: 1500ft/min - Descent Speed: 250kts Options: - Use NATs: yes - Use PACOTS: yes - Use low airways: no - Use high airways: no

Route

LXGB GMME

ID Type Via Altitude Latitude Longitude Leg Dist Tot Dist Heading (true) Name
O LXGB APT - 0 ft / 0 m 36.15121˚ -5.34966˚ - 0 nm - Gibraltar
O GMME APT - 0 ft / 0 m 34.05147˚ -6.75152˚ 143 nm 143 nm 209° / 208° SALE

Altitude Profile

Advertisement - Login to hide

LXGB

Details ICAO LXGB (GIB)
Name Gibraltar
Region Gibralter
Timezone Europe/Gibraltar (UTC+1.0)
Stats Elevation 15 ft / 5 m (AMSL)
Location 36.151209° -5.349664°
Runways 1
Magnetic Variation 1.123° W

METAR

LXGB 120550Z 28007KT CAVOK 09/06 Q1012

Decode

TAF

Not found

Departure Runways

ID Width Length Bearing (true) Bearing (mag) Surface Threshold Offset Overrun Length
27 151 ft / 46 m 5,992 ft / 1,826 m 267.56° 268.68° Asphalt 367 ft / 112 m 89 ft / 27 m
9 151 ft / 46 m 5,992 ft / 1,826 m 87.54° 88.66° Asphalt 299 ft / 91 m 52 ft / 16 m

GMME

Details ICAO GMME (RBA)
Name SALE
Region Morocco
Timezone Africa/Casablanca (UTC+0.0)
Stats Elevation 276 ft / 84 m (AMSL)
Location 34.051468° -6.751519°
Runways 1
Magnetic Variation 1.551° W

METAR

GMME 120630Z 18005KT 140V220 5000 SCT020 BKN086 09/08 Q1014 TEMPO 3000 SHRA

Decode

TAF

TAF GMME 120500Z 1206/1312 18010KT 4000 TSSHRA SCT010 BKN016 SCT022CB OVC100 BECMG 1210/1214 08008KT 8000 SCT016

Decode

Destination Runways

ID Width Length Bearing (true) Bearing (mag) Surface Threshold Offset Overrun Length
04 148 ft / 45 m 11,503 ft / 3,506 m 31.24° 32.79° Asphalt 0 ft / 0 m 197 ft / 60 m
22 148 ft / 45 m 11,503 ft / 3,506 m 211.25° 212.80° Asphalt 0 ft / 0 m 197 ft / 60 m

Approach Navaids

Runway Type Ident Frequency Range Bearing (true) Bearing (mag) Slope Elevation
22 Localiser RS 110.90 MHz 18 nm / 33 km 211.23° 212.78° - 250 ft / 76 m (AMSL)
22 Glidescope RS 110.90 MHz 10 nm / 19 km 211.24° 212.79° 3.00° 246 ft / 75 m (AMSL)
22 DME RS 110.90 MHz 18 nm / 33 km - - - 39 ft / 12 m (AMSL)

Popular Alternatives